Tracking 19717 objects as of 24-Jun-2019
HD Live streaming from Space Station
objects crossing your sky now

COSMOS 1375 DEB

Track COSMOS 1375 DEB now!
10-day predictions


NORAD ID: 18415
Int'l Code: 1982-055BE
Perigee: 945.9 km
Apogee: 1,066.0 km
Inclination: 65.8 °
Period: 105.1 minutes
Semi major axis: 7376 km
RCS: 0.0876 m2 (small)
Launch date: June 6, 1982
Source: Commonwealth of Independent States (former USSR) (CIS)
Launch site: PLESETSK MISSILE AND SPACE COMPLEX (PKMTR)

Note: This is SATELLITE DEBRIS
aabbcc
Your satellite tracking list
Your tracking list is empty




NASA's NSSDC Master Catalog

Two Line Element Set (TLE):
1 18415U 82055BE  19174.95293771 +.00000102 +00000-0 +20106-3 0  9999
2 18415 065.8293 006.9988 0081463 270.5974 241.5908 13.70211614677409
Source of the keplerian elements: AFSPC